Location: Baggettsville
(36.4767°N, 86.7303°W)
Time: 22:38:42
(UTC+00:00)

NOAA 12 - Pass Details

Date: 29 October 2020
Orbit: 796 x 815 km, 98.5° (Epoch: 27 November)

Event Time Altitude Azimuth Distance (km) Brightness Sun altitude
Rises 23:21:14 0° 166° (SSE) 3,304 7.3 -6.3°
Reaches altitude 10° 23:23:33 10° 167° (SSE) 2,380 6.6 -6.8°
Maximum altitude 23:28:50 86° 257° (WSW) 816 4.2 -7.8°
Drops below altitude 10° 23:34:10 10° 346° (NNW) 2,406 6.6 -8.9°
Sets 23:36:32 0° 347° (NNW) 3,343 7.4 -9.4°
